N8QF-1 Weather Reports


Display with metric or nautical units.
time (UTC)temp
F
wind
direction
speed
MPH
gust
MPH
rain 1hr
in
rain 24hr
in
rain mn
in
humidity
%
barometer
mb
20260504081635 54 197 4.0 9.0 0.00 0.00 0.00 56 1010.5
20260504080634 54 187 4.0 7.0 0.00 0.00 0.00 57 1010.5
20260504080133 54 158 5.0 9.0 0.00 0.00 0.00 56 1010.5
20260504070127 55 153 5.0 8.0 0.00 0.00 0.00 55 1011.0
20260504060119 55 229 5.0 10.0 0.00 0.00 0.00 54 1011.6
20260504050611 55 166 3.0 8.0 0.00 0.00 0.00 54 1012.1
20260504050110 55 198 5.0 9.0 0.00 0.00 0.00 54 1012.1
20260504045610 55 188 4.0 8.0 0.00 0.00 0.00 53 1012.2
20260504045109 55 163 4.0 9.0 0.00 0.00 0.00 53 1012.1
20260504044609 55 197 5.0 7.0 0.00 0.00 0.00 53 1012.2
20260504044108 56 194 5.0 7.0 0.00 0.00 0.00 53 1012.2
20260504043608 56 181 5.0 10.0 0.00 0.00 0.00 52 1012.2
20260504043107 56 174 5.0 10.0 0.00 0.00 0.00 51 1012.3
20260504042607 56 212 3.0 9.0 0.00 0.00 0.00 51 1012.3
20260504042106 57 169 3.0 8.0 0.00 0.00 0.00 51 1012.3
20260504041105 57 153 4.0 9.0 0.00 0.00 0.00 51 1012.5
20260504040605 57 127 3.0 10.0 0.00 0.00 0.00 50 1012.5
20260504035603 57 169 6.0 14.0 0.00 0.00 0.00 49 1012.5
20260504034601 57 197 6.0 11.0 0.00 0.00 0.00 49 1012.6
20260504034101 57 222 5.0 11.0 0.00 0.00 0.00 49 1012.6
20260504033600 57 197 6.0 9.0 0.00 0.00 0.00 48 1012.7
20260504033100 58 207 6.0 11.0 0.00 0.00 0.00 48 1012.7
20260504032059 58 167 7.0 15.0 0.00 0.00 0.00 47 1012.6
20260504031558 58 162 8.0 12.0 0.00 0.00 0.00 47 1012.7
20260504031058 58 201 5.0 8.0 0.00 0.00 0.00 47 1012.8
20260504030557 58 200 6.0 8.0 0.00 0.00 0.00 47 1012.8
20260504030057 58 159 4.0 8.0 0.00 0.00 0.00 47 1012.9
20260504025556 58 207 4.0 10.0 0.00 0.00 0.00 47 1012.9
20260504025056 58 172 7.0 10.0 0.00 0.00 0.00 46 1013.0
20260504024555 58 156 5.0 9.0 0.00 0.00 0.00 46 1013.0
20260504024055 58 167 5.0 11.0 0.00 0.00 0.00 45 1013.0
20260504023554 58 180 5.0 10.0 0.00 0.00 0.00 45 1013.1
20260504023053 58 177 8.0 11.0 0.00 0.00 0.00 44 1013.1
20260504022552 59 177 5.0 9.0 0.00 0.00 0.00 44 1013.1
20260504022052 59 159 4.0 9.0 0.00 0.00 0.00 43 1013.1
20260504021551 59 218 5.0 9.0 0.00 0.00 0.00 43 1013.1
20260504021050 59 131 2.0 7.0 0.00 0.00 0.00 43 1013.1
20260504020550 59 187 4.0 7.0 0.00 0.00 0.00 42 1013.1
20260504020049 59 165 3.0 8.0 0.00 0.00 0.00 42 1013.1
20260504015549 59 222 3.0 6.0 0.00 0.00 0.00 41 1012.9
20260504015049 59 201 2.0 7.0 0.00 0.00 0.00 41 1013.0
20260504014548 59 167 5.0 7.0 0.00 0.00 0.00 40 1013.0
20260504014047 59 190 4.0 8.0 0.00 0.00 0.00 40 1012.9
20260504013547 60 169 3.0 8.0 0.00 0.00 0.00 40 1012.9
20260504013046 60 195 3.0 9.0 0.00 0.00 0.00 40 1012.8
20260504012546 60 166 4.0 6.0 0.00 0.00 0.00 39 1012.8
20260504012045 59 158 2.0 5.0 0.00 0.00 0.00 40 1012.7
20260504011545 60 208 1.0 8.0 0.00 0.00 0.00 40 1012.7
20260504011044 60 158 2.0 8.0 0.00 0.00 0.00 40 1012.7
20260504010544 60 172 5.0 6.0 0.00 0.00 0.00 40 1012.7
20260504005543 60 194 4.0 8.0 0.00 0.00 0.00 40 1012.7
20260504005042 60 184 5.0 7.0 0.00 0.00 0.00 40 1012.8
20260504004542 60 187 3.0 6.0 0.00 0.00 0.00 40 1012.7
20260504004041 60 214 2.0 8.0 0.00 0.00 0.00 40 1012.7
20260504003541 60 172 4.0 8.0 0.00 0.00 0.00 40 1012.7
20260504003040 60 186 4.0 9.0 0.00 0.00 0.00 40 1012.5
20260504002539 60 210 6.0 9.0 0.00 0.00 0.00 40 1012.4
20260504002039 60 221 5.0 10.0 0.00 0.00 0.00 39 1012.7
20260504001538 60 165 3.0 10.0 0.00 0.00 0.00 39 1012.7
20260504000537 60 191 5.0 12.0 0.00 0.00 0.00 38 1012.6
20260504000037 60 159 6.0 11.0 0.00 0.00 0.00 38 1012.5
20260503235034 60 193 6.0 10.0 0.00 0.00 0.00 38 1012.5
20260503234533 60 184 7.0 11.0 0.00 0.00 0.00 37 1012.4
20260503234033 61 163 6.0 15.0 0.00 0.00 0.00 37 1012.3
20260503233532 61 177 5.0 11.0 0.00 0.00 0.00 37 1012.3
20260503232531 61 184 4.0 17.0 0.00 0.00 0.00 37 1012.5
20260503232031 61 207 10.0 11.0 0.00 0.00 0.00 36 1012.6
20260503231030 61 217 9.0 13.0 0.00 0.00 0.00 36 1012.9
20260503230529 61 208 7.0 11.0 0.00 0.00 0.00 36 1013.1
20260503230028 61 208 7.0 18.0 0.00 0.00 0.00 35 1013.2
20260503225528 61 242 7.0 18.0 0.00 0.00 0.00 35 1013.4
20260503225027 61 211 11.0 22.0 0.00 0.00 0.00 35 1013.4
20260503224527 61 228 6.0 18.0 0.00 0.00 0.00 35 1013.5
20260503224026 61 215 6.0 15.0 0.00 0.00 0.00 36 1013.6
20260503223526 61 210 5.0 16.0 0.00 0.00 0.00 34 1013.6
20260503223025 61 165 10.0 17.0 0.00 0.00 0.00 34 1013.7
20260503222525 61 214 7.0 14.0 0.00 0.00 0.00 34 1013.8
20260503222024 61 194 8.0 15.0 0.00 0.00 0.00 33 1014.1
20260503221524 61 212 9.0 15.0 0.00 0.00 0.00 34 1014.2
20260503221023 61 240 8.0 19.0 0.00 0.00 0.00 33 1014.3
20260503220523 61 187 8.0 15.0 0.00 0.00 0.00 34 1014.2
20260503220022 61 181 5.0 14.0 0.00 0.00 0.00 35 1014.1
20260503215522 61 203 9.0 12.0 0.00 0.00 0.00 34 1014.1
20260503214020 60 201 5.0 13.0 0.00 0.00 0.00 35 1014.2
20260503213519 60 212 6.0 10.0 0.00 0.00 0.00 34 1014.2
20260503213019 60 211 8.0 15.0 0.00 0.00 0.00 34 1014.3
20260503212518 60 207 5.0 12.0 0.00 0.00 0.00 35 1014.3
20260503212018 59 210 8.0 13.0 0.00 0.00 0.00 34 1014.5
20260503211518 59 162 6.0 10.0 0.00 0.00 0.00 34 1014.5
20260503211017 60 239 5.0 9.0 0.00 0.00 0.00 35 1014.7
20260503210516 59 250 7.0 13.0 0.00 0.00 0.00 35 1014.7
20260503210016 59 203 6.0 14.0 0.00 0.00 0.00 35 1014.7
20260503205515 59 253 9.0 10.0 0.00 0.00 0.00 34 1014.9
20260503205015 60 215 6.0 15.0 0.00 0.00 0.00 35 1015.4
20260503204514 60 238 5.0 16.0 0.00 0.00 0.00 34 1015.7
20260503204014 59 271 6.0 17.0 0.00 0.00 0.00 33 1015.6
20260503203513 60 264 9.0 15.0 0.00 0.00 0.00 34 1015.6
20260503202512 60 225 10.0 21.0 0.00 0.00 0.00 34 1015.4
20260503202011 59 224 10.0 16.0 0.00 0.00 0.00 33 1015.4
20260503201510 60 235 10.0 16.0 0.00 0.00 0.00 34 1015.5
20260503201010 60 225 10.0 18.0 0.00 0.00 0.00 35 1015.3
20260503200509 60 221 11.0 19.0 0.00 0.00 0.00 33 1015.3
20260503200009 60 218 9.0 18.0 0.00 0.00 0.00 33 1015.3
20260503195508 60 236 10.0 19.0 0.00 0.00 0.00 33 1015.3
20260503195008 60 212 12.0 22.0 0.00 0.00 0.00 33 1015.4
20260503194506 60 204 12.0 20.0 0.00 0.00 0.00 32 1015.4
20260503194005 61 225 10.0 19.0 0.00 0.00 0.00 32 1015.5
20260503193004 61 249 5.0 23.0 0.00 0.00 0.00 34 1015.9
20260503192503 61 222 11.0 20.0 0.00 0.00 0.00 32 1016.0
20260503191001 61 167 12.0 19.0 0.00 0.00 0.00 32 1016.1
20260503190501 61 242 8.0 23.0 0.00 0.00 0.00 34 1016.2
20260503185959 60 214 15.0 22.0 0.00 0.00 0.00 31 1016.3
20260503185459 61 249 11.0 21.0 0.00 0.00 0.00 34 1016.2
20260503184958 61 235 14.0 18.0 0.00 0.00 0.00 33 1016.4
20260503183957 61 208 9.0 20.0 0.00 0.00 0.00 33 1016.6
20260503183457 61 207 8.0 16.0 0.00 0.00 0.00 34 1016.7
20260503182956 61 259 8.0 17.0 0.00 0.00 0.00 32 1016.6
20260503182456 60 215 12.0 17.0 0.00 0.00 0.00 35 1016.8
20260503181955 59 249 12.0 21.0 0.00 0.00 0.00 33 1016.9
20260503181455 60 222 17.0 17.0 0.00 0.00 0.00 32 1016.9
20260503180454 61 238 7.0 16.0 0.00 0.00 0.00 35 1017.0
20260503175953 59 207 11.0 17.0 0.00 0.00 0.00 33 1017.2
20260503175453 59 197 11.0 21.0 0.00 0.00 0.00 34 1017.1
20260503174952 59 204 9.0 19.0 0.00 0.00 0.00 34 1017.1
20260503174452 60 235 8.0 23.0 0.00 0.00 0.00 34 1017.1
20260503173951 60 204 13.0 14.0 0.00 0.00 0.00 34 1017.1
20260503173450 60 224 5.0 19.0 0.00 0.00 0.00 36 1017.4
20260503172950 59 246 10.0 17.0 0.00 0.00 0.00 36 1017.4
20260503172449 58 231 10.0 20.0 0.00 0.00 0.00 36 1017.5
20260503171949 59 242 9.0 24.0 0.00 0.00 0.00 37 1017.7
20260503171448 58 225 11.0 21.0 0.00 0.00 0.00 36 1017.7
20260503170948 58 208 13.0 18.0 0.00 0.00 0.00 36 1017.9
20260503170447 58 228 8.0 15.0 0.00 0.00 0.00 35 1017.8
20260503150935 52 212 11.0 13.0 0.00 0.00 0.00 49 1019.4
20260503150435 53 252 10.0 17.0 0.00 0.00 0.00 50 1019.4
20260503130922 45 242 8.0 10.0 0.00 0.00 0.00 62 1019.5
20260503130421 45 256 5.0 14.0 0.00 0.00 0.00 64 1019.6
20260503110404 35 347 0.0 0.0 0.00 0.00 0.00 94 1019.1
20260503090347 36 347 0.0 0.0 0.00 0.00 0.00 94 1018.3